sat.trackr.live / text

‹ back to catalog

ONEWEB-0495

NORAD 54115 · 2022-138C

PAYLOAD ACTIVE UNKNOWN

§ Identity

Operator
Country
UK
Launch date
2022-10-22
Launch site
SRILR
Launch vehicle
Mass (kg)
RCS (m²)

Purposes: comms

External: N2YO · Heavens-Above · Gunter

§ Orbital elements

Epoch: 2026-09-20T01:26:56.401728Z

Period
109.11 min
Inclination
87.9102°
Eccentricity
0.0002009
Mean motion
13.19725629 rev/d
Perigee alt
1,184.2 km
Apogee alt
1,187.3 km
Semi-major
7,563.9 km
B*
-7.2524e-5
RAAN
286.0659°
Arg perigee
73.2443°
Mean anomaly
286.8910°
Rev number
18,933

§ Raw data

ONEWEB-04951 54115U 22138C   26263.06037502 -.00000016  00000+0 -72524-4 0  99962 54115  87.9102 286.0659 0002009  73.2443 286.8910 13.19725629189338

JSON: /api/v1/satellites/54115 · /tle

For live sub-satellite position, see the globe view (requires WebGL).

§ Visibility from observer

Set your observer location to see the next 7 days of passes ≥ 10°. The values pass through the URL so the page stays shareable.

No JS? Fill the form by hand. The geolocation button needs JavaScript.